Regional Weather Roundup
Issued by NWS Sioux Falls, SD

Home | Current Version | Previous Version | Graphics & Text | Print | Product List | Glossary Off
Versions: 1 2 3 4 5 6 7 8 9 10 11 12 13 14 15 16 17 18 19 20 21 22 23 24 25 26 27 28 29 30 31 32 33 34 35 36 37 38 39 40 41 42 43 44 45 46 47 48 49 50

444
ASUS43 KFSD 111602
RWRFSD

WEATHER ROUNDUP FOR SE SOUTH DAKOTA/SW MINNESOTA/NW IOWA
NATIONAL WEATHER SERVICE SIOUX FALLS SD
1000 AM CST THU FEB 11 2016

NOTE: "FAIR" INDICATES FEW OR NO CLOUDS BELOW 12,000 FEET WITH NO
SIGNIFICANT WEATHER AND OR OBSTRUCTIONS TO VISIBILITY.


SDZ038>040-050-052>070-111700-
SOUTHEAST SOUTH DAKOTA

CITY           SKY/WX    TMP DP  RH WIND       PRES   REMARKS
BROOKINGS      CLOUDY    13   6  74 S12       30.20S WCI  -1
CHAMBERLAIN    LGT SNOW  23  21  93 SE12      30.12F WCI  12
HURON          CLOUDY    19  14  81 S9        30.19F WCI   8
MADISON        CLOUDY    14  10  85 S15       30.19S WCI  -1
MITCHELL       CLOUDY    20  15  81 SE13      30.21F WCI   7
SIOUX FALLS    CLOUDY    14   5  67 S8        30.25R WCI   3
WINNER         CLOUDY    30  24  78 S12       30.09F WCI  20
YANKTON        CLOUDY    18  12  79 SE13      30.26R WCI   4
$$

MNZ071-072-080-081-089-090-097-098-111700-
SOUTHWEST MINNESOTA

CITY           SKY/WX    TMP DP  RH WIND       PRES   REMARKS
FAIRMONT       CLOUDY     3   0  85 S5        30.29R WCI  -6
JACKSON        CLOUDY    10   1  67 S6        30.26S WCI   1
LUVERNE        CLOUDY    18   9  68 S8        30.26R WCI   7
MARSHALL       CLOUDY    13   2  61 S7        30.27S WCI   3
MONTEVIDEO     FLURRIES   9   7  92 CALM      30.30R
PIPESTONE      CLOUDY    16   1  53 S10       30.21S WCI   3
REDWOOD FALLS  CLOUDY     8   4  83 S6        30.30R WCI  -2
TRACY          CLOUDY    12   6  78 S5        30.26R WCI   4
WINDOM         CLOUDY     7   3  85 CALM      30.26R
WORTHINGTON    CLOUDY    10   1  67 S8        30.26R WCI  -1
$$

IAZ001>003-012>014-020>022-031-032-NEZ013-014-SDZ071-111700-
NORTHWEST IOWA

CITY           SKY/WX    TMP DP  RH WIND       PRES   REMARKS
DENISON        CLOUDY    12   5  73 SE9       30.29S WCI   0
ESTHERVILLE    CLOUDY     7   2  80 S8        30.27F WCI  -6
SIOUX CITY     CLOUDY    18   9  68 SE12      30.30R WCI   5
SPENCER        CLOUDY    11   2  67 S8        30.28S WCI  -1
STORM LAKE     CLOUDY    12   7  79 SE12      30.28S WCI  -2
$$

ABBREVIATIONS USED IN REMARKS
   TC - TEMPERATURE IN CELSIUS
  WCI - WIND CHILL INDEX
   HX - HEAT INDEX
  VSB - VISIBILITY





USA.gov is the U.S. government's official web portal to all federal, state and local government web resources and services.